Address 0x9f1f972fdcdb79c1956bbc9767f52ad1ff99e7ea

 
Txn Hash
Block
From
To
Value [Txn Fee]
0xaf113013ff7d5df29515e448b3459b9bfc3f037a0cec30a3e1cb2105c396d63f73325192021-05-11 23:10:1332 days 14 hrs ago0x9f1f972fdcdb79c1956bbc9767f52ad1ff99e7eaOUT0x7cec3cb1f54bd1f2e2ef76e06eccda23b54769900.020836758770814 BNB0.000231
0x4497eff64ec6c192232e1aa36764f62ffd30bfeff06ff6da8dd545f407d9764173324762021-05-11 23:08:0432 days 14 hrs ago0x9f1f972fdcdb79c1956bbc9767f52ad1ff99e7eaOUT PancakeSwap: Router0 BNB0.002163293
0x77cb27980a704d298fb71cc41571a441e91eb0b279a2c9463038af38c991cc7673324422021-05-11 23:06:2232 days 14 hrs ago0x7cec3cb1f54bd1f2e2ef76e06eccda23b5476990 IN 0x9f1f972fdcdb79c1956bbc9767f52ad1ff99e7ea0.005615559621976 BNB0.000231
0x1b2ed8cc0ae0aaacb608deb5f772e8a92941827a7e63b19b355f0d76edf50ae669203952021-04-27 4:31:3247 days 8 hrs ago0x9f1f972fdcdb79c1956bbc9767f52ad1ff99e7eaOUT0x7cec3cb1f54bd1f2e2ef76e06eccda23b54769900.004164209951238 BNB0.000105
0xc9da134c40b595b63973015eca7e49a12a98ad2d3e0c5a429bb837892feed51d68604042021-04-25 2:15:0749 days 11 hrs ago0x9f1f972fdcdb79c1956bbc9767f52ad1ff99e7eaOUT Binance: BUSD Stablecoin0 BNB0.000105575
0xc8d931fe9ddf27eff130814aa133917d0bdbcf95682e682dcb27985ed4e4342068601572021-04-25 2:02:4649 days 11 hrs ago0x9f1f972fdcdb79c1956bbc9767f52ad1ff99e7eaOUT PancakeSwap: Router0 BNB0.00110079
0x48ea26558ac92b8916900ad2344b9c50139d4da6fbca40b809dd6c32f412b3d168466012021-04-24 14:41:3349 days 22 hrs ago0x9f1f972fdcdb79c1956bbc9767f52ad1ff99e7eaOUT PancakeSwap: Router0 BNB0.001109305
0x5f3b49d71bc795f556ee314d8390125f9fd1bfb8d031d0f87d55432d3d3ff2ab68465752021-04-24 14:40:1549 days 22 hrs ago0x9f1f972fdcdb79c1956bbc9767f52ad1ff99e7eaOUT PancakeSwap: Router0 BNB0.00260838
0x393e122a2caa22e389328a076c7f78e696b90135a8d218b81eb91d20c5aed67368451442021-04-24 13:28:4149 days 23 hrs ago0x9f1f972fdcdb79c1956bbc9767f52ad1ff99e7eaOUT PancakeSwap: Router v20 BNB0.001114695
0xddaaf6f85a5c38c0c0d8af2314f5627cababc354ebc0b5372ee7ad287127674a68451192021-04-24 13:27:2649 days 23 hrs ago0x9f1f972fdcdb79c1956bbc9767f52ad1ff99e7eaOUT PancakeSwap: Router v20 BNB0.000233
0x3dd6d11d0708bca3b3593f16003cea22b0f36640e2e372da433f53c535afd93b68444932021-04-24 12:55:3350 days 28 mins ago0x9f1f972fdcdb79c1956bbc9767f52ad1ff99e7eaOUT 0x6332f6559b2aaae2ab2169a8c5a94f9d0a311cfd0 BNB0.00022266
0x28e6d398e2f4dbc3fe17c48beed62d632cfa7984e226f3ee623fbf1ab213f5d968444782021-04-24 12:54:4850 days 29 mins ago0x9f1f972fdcdb79c1956bbc9767f52ad1ff99e7eaOUT PancakeSwap: Router v20 BNB0.001385705
0xcca787ee7cfe25e637870a52bf92aaf613cb629f9cfa0fc9e932022263b0ad6468444682021-04-24 12:54:1850 days 29 mins ago0x9f1f972fdcdb79c1956bbc9767f52ad1ff99e7eaOUT Binance: BUSD Stablecoin0 BNB0.00022203
0x240246170036515b04b0cf5282f67eadc3465cbb93f151c4cda9df20685c5f5868430582021-04-24 11:43:4650 days 1 hr ago0x9f1f972fdcdb79c1956bbc9767f52ad1ff99e7eaOUT PancakeSwap: Router0 BNB0.00121942
0xd864c7d5bb3b09aac942e605e277b86e305eee3df29099b85a4754ffdd8268e968409192021-04-24 9:56:3350 days 3 hrs ago0x9f1f972fdcdb79c1956bbc9767f52ad1ff99e7eaOUT PancakeSwap: Router0 BNB0.001060995
0x82b5e78b2affb4cba5631b5f37a440ffada18a19802f159d731eaa35d93d01a068409052021-04-24 9:55:5150 days 3 hrs ago0x9f1f972fdcdb79c1956bbc9767f52ad1ff99e7eaOUT PancakeSwap: Router0 BNB0.001240975
0x856489a6d7f6159bdb16e6ab71ae95282cb2adfadf98a11b6ed5d2c1cf5dd91168406282021-04-24 9:42:0050 days 3 hrs ago0x9f1f972fdcdb79c1956bbc9767f52ad1ff99e7eaOUT PancakeSwap: Router0 BNB0.00081049
0x71e4b8c74c48e5d4aeb0f751b5d5616c8ee816966d7258ab08035ee748cb241568402232021-04-24 9:21:4550 days 4 hrs ago0x9f1f972fdcdb79c1956bbc9767f52ad1ff99e7eaOUT PancakeSwap: Router0 BNB0.00127052
0xaab7f1c48c921e35c5f5615b22e825d4d921ba4a45718a4b36a628a250d03d7d68393962021-04-24 8:40:2450 days 4 hrs ago0x9f1f972fdcdb79c1956bbc9767f52ad1ff99e7eaOUT PancakeSwap: Router0 BNB0.00088549
0x57e87347a4944bf7f52fff11fa55a2f1f266b4cdceae0ebe10548d45ffc9127468379892021-04-24 7:29:5550 days 5 hrs ago0x9f1f972fdcdb79c1956bbc9767f52ad1ff99e7eaOUT PancakeSwap: Router0 BNB0.000647255
0xa9f974b8c73fc14697ee218ed3c7d7b68f1d0aee5bad4de49350d292481d7a7468325422021-04-24 2:57:3450 days 10 hrs ago0x9f1f972fdcdb79c1956bbc9767f52ad1ff99e7eaOUT PancakeSwap: Router0 BNB0.000881855
0xd561e09fd18d1f59c7eac80d0323be03c537a6dbcd89ad94f2aba09fa7486b6f68325332021-04-24 2:57:0750 days 10 hrs ago0x9f1f972fdcdb79c1956bbc9767f52ad1ff99e7eaOUT PancakeSwap: Router0 BNB0.00017965
0xd13139dea3f554af5431b76a9c7641375210296127e1c09520ec0048d98f65e368306982021-04-24 1:25:0550 days 11 hrs ago0x9f1f972fdcdb79c1956bbc9767f52ad1ff99e7eaOUT PancakeSwap: Router0 BNB0.00109776
0xf7b8fced3a3866c3a12b1fd73a6b631f729931d70faf616477314e86549f5df268306822021-04-24 1:24:1750 days 11 hrs ago0x9f1f972fdcdb79c1956bbc9767f52ad1ff99e7eaOUT PancakeSwap: Router0 BNB0.001236235
0x01c797c5626fc5242d157dddff9536e2881f27b0726cb463ed8eeadc5889a30b68306722021-04-24 1:23:4750 days 12 hrs ago0x9f1f972fdcdb79c1956bbc9767f52ad1ff99e7eaOUT PancakeSwap: Router0 BNB0.001357955
[ Download CSV Export 
Latest 10 internal transactions
Parent Txn Hash Block From To Value
0x4497eff64ec6c192232e1aa36764f62ffd30bfeff06ff6da8dd545f407d9764173324762021-05-11 23:08:0432 days 14 hrs ago PancakeSwap: Router0x9f1f972fdcdb79c1956bbc9767f52ad1ff99e7ea0.017615492148837281 BNB
0x57e87347a4944bf7f52fff11fa55a2f1f266b4cdceae0ebe10548d45ffc9127468379892021-04-24 7:29:5550 days 5 hrs ago PancakeSwap: Router0x9f1f972fdcdb79c1956bbc9767f52ad1ff99e7ea0.014468061127141235 BNB
0xad166e94bd3a2b2691236937b2b8a8fec0591549879637fac32f25bc1ce0d5fd68290492021-04-24 0:02:3850 days 13 hrs ago PancakeSwap: Router0x9f1f972fdcdb79c1956bbc9767f52ad1ff99e7ea0.009502057039933336 BNB
0x5ef9b680d360aa74eaf6ce0f4cddd71f4ce09c2c708dc89f01de4ff9f407724368030452021-04-23 2:18:1651 days 11 hrs ago PancakeSwap: Router0x9f1f972fdcdb79c1956bbc9767f52ad1ff99e7ea0.016115725309679471 BNB
0xee472ce1770dc8f0af07a286e0013d19d85535fcc1e9da328fc2836748c9c20d68017452021-04-23 1:11:3751 days 12 hrs ago PancakeSwap: Router0x9f1f972fdcdb79c1956bbc9767f52ad1ff99e7ea0.014753002059040781 BNB
0x7c7165202ff40ee7bcbeab9d180594f73eb59d14ed5b48f33c307a3dc513754767902022021-04-22 15:03:0351 days 22 hrs ago PancakeSwap: Router0x9f1f972fdcdb79c1956bbc9767f52ad1ff99e7ea0.011451650103874206 BNB
0x767aeff0b879fe4e1bec13ebb2056a851d9f502757bd420845f7d8487772ad4b66396222021-04-17 8:20:0557 days 5 hrs ago PancakeSwap: Router0x9f1f972fdcdb79c1956bbc9767f52ad1ff99e7ea0.008048336200416126 BNB
0x384a9e54195dc50c2eba2166dc1fc2f718e21f874dbd20a66fb02239b04e34d650342872021-02-20 4:34:44113 days 8 hrs ago PancakeSwap: Router0x9f1f972fdcdb79c1956bbc9767f52ad1ff99e7ea0.007014612550955568 BNB
0xc085e216505000cf26d42d76b25947d6a211c6401999227c81f132694ad93b5642483162021-01-23 17:58:18140 days 19 hrs ago PancakeSwap: Router0x9f1f972fdcdb79c1956bbc9767f52ad1ff99e7ea0.002119728479844508 BNB
0xb2430edf77944890ac6ffe744c13326f3fdd0fa8a937c1ba1ed0b14d1830d33442482472021-01-23 17:54:51140 days 19 hrs ago PancakeSwap: Router0x9f1f972fdcdb79c1956bbc9767f52ad1ff99e7ea0.000529982670872487 BNB
[ Download CSV Export 
Loading

Contract Name:
0 BNB

Compiler Version
0

Optimization Enabled:
0 BNB

Other Settings:
-NA-
Block Transaction Gas Used Reward
Age Block Fee Address BC Fee Address Voting Power Jailed Incoming
Block Uncle Number Difficulty Gas Used Reward
Loading
Loading
Make sure to use the "Vote Down" button for any spammy posts, and the "Vote Up" for interesting conversations.